Back to catalog

GONETS-M 23

AliveCommunicationsPO
NORAD 54150·PAYLOAD·🇷🇺 Russia

Launched Oct 22, 2022 from Vostochny Cosmodrome

Loading…

Next Passes (next 24 hours)

TLE

FreshSource: Space-Track

Epoch: Sep 14, 2026, 14:44 UTC

1 54150U 22139A   26257.61421252  .00000015  00000-0  36342-4 0  9995
2 54150  82.5037 292.7283 0021824  29.9085 330.3236 12.42893457176756

Track GONETS-M 23 in real time with AllMySat

Download on the App Store